Location: Tauranga
(37.6860°S, 176.1670°E)
Time: 18:50:49
(UTC+13:00)

ISS - Pass Details

Date: 30 January 2019
Orbit: 403 x 411 km, 51.6° (Epoch: 18 February)

Event Time Altitude Azimuth Distance (km) Brightness Sun altitude
Exits shadow 05:26:07 18° 294° (WNW) 1,095 -2.3 -11.3°
Maximum altitude 05:28:25 59° 218° (SW) 485 -3.5 -10.9°
Drops below altitude 10° 05:31:45 10° 136° (SE) 1,496 0.5 -10.3°
Sets 05:33:52 0° 132° (SE) 2,362 2.1 -10.0°
